| time (UTC) | temp C | wind direction | speed KPH | gust KPH | rain 1hr cm | rain 24hr cm | rain mn cm | humidity % | barometer mb |
| 20260502170254 | 30 | 94 | 11.3 | 22.5 | 0.00 | 0.00 | 0.00 | 25 | 1013.0 |
| 20260502163555 | 30 | 127 | 9.7 | 22.5 | 0.00 | 0.00 | 0.00 | 26 | 1013.0 |
| 20260502162654 | 29 | 119 | 11.3 | 22.5 | 0.00 | 0.00 | 0.00 | 27 | 1013.0 |
| 20260502161754 | 28 | 118 | 11.3 | 22.5 | 0.00 | 0.00 | 0.00 | 27 | 1012.9 |
| 20260502150554 | 26 | 106 | 4.8 | 11.3 | 0.00 | 0.00 | 0.00 | 28 | 1012.5 |
| 20260502120554 | 18 | 90 | 0.0 | 3.2 | 0.00 | 0.00 | 0.00 | 38 | 1010.3 |
| 20260502115654 | 18 | 90 | 1.6 | 3.2 | 0.00 | 0.00 | 0.00 | 39 | 1010.3 |
| 20260502113854 | 18 | 90 | 1.6 | 3.2 | 0.00 | 0.00 | 0.00 | 39 | 1010.3 |
| 20260502112954 | 18 | 90 | 0.0 | 3.2 | 0.00 | 0.00 | 0.00 | 38 | 1010.2 |
| 20260502111154 | 18 | 90 | 1.6 | 4.8 | 0.00 | 0.00 | 0.00 | 37 | 1010.1 |
| 20260502110254 | 18 | 90 | 0.0 | 3.2 | 0.00 | 0.00 | 0.00 | 37 | 1010.1 |
| 20260502105354 | 18 | 90 | 1.6 | 1.6 | 0.00 | 0.00 | 0.00 | 37 | 1010.1 |
| 20260502103554 | 19 | 90 | 0.0 | 3.2 | 0.00 | 0.00 | 0.00 | 36 | 1010.0 |
| 20260502102654 | 20 | 90 | 1.6 | 3.2 | 0.00 | 0.00 | 0.00 | 35 | 1009.9 |
| 20260502101754 | 20 | 90 | 0.0 | 3.2 | 0.00 | 0.00 | 0.00 | 34 | 1009.7 |
| 20260502100854 | 20 | 90 | 1.6 | 1.6 | 0.00 | 0.00 | 0.00 | 34 | 1009.8 |
| 20260502090554 | 23 | 90 | 6.4 | 11.3 | 0.00 | 0.00 | 0.00 | 27 | 1009.4 |
| 20260502065953 | 22 | 152 | 1.6 | 3.2 | 0.00 | 0.00 | 0.00 | 30 | 1009.1 |
| 20260502065054 | 23 | 153 | 1.6 | 6.4 | 0.00 | 0.00 | 0.00 | 30 | 1009.1 |
| 20260502064154 | 23 | 0 | 0.0 | 0.0 | 0.00 | 0.00 | 0.00 | 29 | 1009.1 |
| 20260502063253 | 23 | 0 | 0.0 | 0.0 | 0.00 | 0.00 | 0.00 | 29 | 1009.0 |
| 20260502062353 | 23 | 0 | 0.0 | 0.0 | 0.00 | 0.00 | 0.00 | 29 | 1009.0 |